| time (UTC) | temp C | wind direction | speed KPH | gust KPH | rain 1hr cm | rain 24hr cm | rain mn cm | humidity % | barometer mb |
| 20260905064055 | 22 | 262 | 0.0 | 0.0 | 0.00 | 0.00 | 0.00 | 72 | 1022.4 |
| 20260905063553 | 22 | 262 | 0.0 | 0.0 | 0.00 | 0.00 | 0.00 | 73 | 1022.4 |
| 20260905063050 | 21 | 271 | 0.0 | 0.0 | 0.00 | 0.00 | 0.00 | 76 | 1022.5 |
| 20260905062046 | 20 | 271 | 0.0 | 0.0 | 0.00 | 0.00 | 0.00 | 80 | 1022.4 |
| 20260905061547 | 19 | 271 | 0.0 | 0.0 | 0.00 | 0.00 | 0.00 | 80 | 1022.5 |
| 20260905061046 | 19 | 271 | 0.0 | 0.0 | 0.00 | 0.00 | 0.00 | 82 | 1022.6 |
| 20260905060546 | 18 | 271 | 0.0 | 0.0 | 0.00 | 0.00 | 0.00 | 82 | 1022.7 |
| 20260905055547 | 18 | 270 | 0.0 | 0.0 | 0.00 | 0.00 | 0.00 | 83 | 1022.6 |
| 20260905055046 | 18 | 269 | 0.0 | 0.0 | 0.00 | 0.00 | 0.00 | 84 | 1022.5 |
| 20260905054545 | 17 | 269 | 0.0 | 0.0 | 0.00 | 0.00 | 0.00 | 85 | 1022.5 |
| 20260905054046 | 17 | 269 | 0.0 | 0.0 | 0.00 | 0.00 | 0.00 | 84 | 1022.6 |
| 20260905053542 | 17 | 269 | 0.0 | 1.6 | 0.00 | 0.00 | 0.00 | 85 | 1022.7 |
| 20260905051036 | 16 | 269 | 0.0 | 0.0 | 0.00 | 0.00 | 0.00 | 86 | 1022.5 |
| 20260905050037 | 16 | 269 | 0.0 | 0.0 | 0.00 | 0.00 | 0.00 | 85 | 1022.4 |
| 20260905045536 | 16 | 269 | 0.0 | 0.0 | 0.00 | 0.00 | 0.00 | 84 | 1022.5 |
| 20260905045036 | 16 | 269 | 0.0 | 0.0 | 0.00 | 0.00 | 0.00 | 85 | 1022.5 |
| 20260905044035 | 16 | 269 | 0.0 | 0.0 | 0.00 | 0.00 | 0.00 | 84 | 1022.4 |
| 20260905043533 | 16 | 269 | 0.0 | 0.0 | 0.00 | 0.00 | 0.00 | 84 | 1022.3 |
| 20260905043032 | 17 | 269 | 0.0 | 0.0 | 0.00 | 0.00 | 0.00 | 84 | 1022.3 |
| 20260905042532 | 17 | 269 | 0.0 | 0.0 | 0.00 | 0.00 | 0.00 | 84 | 1022.2 |
| 20260905041533 | 16 | 269 | 0.0 | 1.6 | 0.00 | 0.00 | 0.00 | 84 | 1022.1 |
| 20260905041033 | 16 | 269 | 0.0 | 1.6 | 0.00 | 0.00 | 0.00 | 84 | 1022.0 |
| 20260905040532 | 17 | 269 | 0.0 | 0.0 | 0.00 | 0.00 | 0.00 | 84 | 1022.0 |
| 20260905040028 | 17 | 271 | 0.0 | 1.6 | 0.00 | 0.00 | 0.00 | 84 | 1022.1 |
| 20260905035528 | 17 | 271 | 0.0 | 1.6 | 0.00 | 0.00 | 0.00 | 84 | 1022.1 |
| 20260905035029 | 17 | 271 | 0.0 | 0.0 | 0.00 | 0.00 | 0.00 | 84 | 1021.8 |
| 20260905033033 | 17 | 271 | 0.0 | 0.0 | 0.00 | 0.00 | 0.00 | 83 | 1022.0 |
| 20260905032528 | 17 | 271 | 0.0 | 0.0 | 0.00 | 0.00 | 0.00 | 83 | 1021.9 |
| 20260905032027 | 17 | 271 | 0.0 | 0.0 | 0.00 | 0.00 | 0.00 | 83 | 1021.8 |
| 20260905031521 | 17 | 271 | 0.0 | 0.0 | 0.00 | 0.00 | 0.00 | 83 | 1021.9 |
| 20260905031016 | 17 | 274 | 0.0 | 0.0 | 0.00 | 0.00 | 0.00 | 82 | 1021.9 |
| 20260905030016 | 17 | 274 | 0.0 | 0.0 | 0.00 | 0.00 | 0.00 | 82 | 1021.9 |
| 20260905025457 | 17 | 274 | 0.0 | 0.0 | 0.00 | 0.00 | 0.00 | 82 | 1021.9 |
| 20260905024953 | 17 | 274 | 0.0 | 0.0 | 0.00 | 0.00 | 0.00 | 82 | 1022.0 |
| 20260905024445 | 17 | 274 | 0.0 | 0.0 | 0.00 | 0.00 | 0.00 | 82 | 1022.0 |
| 20260905023432 | 17 | 273 | 0.0 | 0.0 | 0.00 | 0.00 | 0.00 | 81 | 1022.0 |
| 20260905022928 | 18 | 272 | 0.0 | 0.0 | 0.00 | 0.00 | 0.00 | 81 | 1022.0 |
| 20260905021916 | 18 | 269 | 0.0 | 0.0 | 0.00 | 0.00 | 0.00 | 81 | 1022.1 |
| 20260905021411 | 18 | 269 | 0.0 | 0.0 | 0.00 | 0.00 | 0.00 | 81 | 1022.1 |
| 20260905020902 | 18 | 269 | 0.0 | 0.0 | 0.00 | 0.00 | 0.00 | 81 | 1022.2 |
| 20260905020400 | 18 | 269 | 0.0 | 0.0 | 0.00 | 0.00 | 0.00 | 81 | 1022.2 |
| 20260905015852 | 18 | 269 | 0.0 | 0.0 | 0.00 | 0.00 | 0.00 | 81 | 1022.3 |
| 20260905015345 | 18 | 269 | 0.0 | 0.0 | 0.00 | 0.00 | 0.00 | 81 | 1022.4 |
| 20260905014845 | 18 | 269 | 0.0 | 6.4 | 0.00 | 0.00 | 0.00 | 80 | 1022.3 |
| 20260905014341 | 18 | 269 | 0.0 | 6.4 | 0.00 | 0.00 | 0.00 | 80 | 1022.4 |
| 20260905013842 | 18 | 266 | 0.0 | 0.0 | 0.00 | 0.00 | 0.00 | 79 | 1022.4 |
| 20260905013343 | 18 | 264 | 0.0 | 6.4 | 0.00 | 0.00 | 0.00 | 79 | 1022.3 |
| 20260905012839 | 18 | 275 | 0.0 | 6.4 | 0.00 | 0.00 | 0.00 | 79 | 1022.3 |
| 20260905012339 | 18 | 269 | 0.0 | 3.2 | 0.00 | 0.00 | 0.00 | 78 | 1022.2 |
| 20260905011836 | 18 | 264 | 0.0 | 0.0 | 0.00 | 0.00 | 0.00 | 78 | 1022.3 |
| 20260905011333 | 18 | 264 | 0.0 | 0.0 | 0.00 | 0.00 | 0.00 | 78 | 1022.2 |
| 20260905010330 | 19 | 264 | 0.0 | 0.0 | 0.00 | 0.00 | 0.00 | 78 | 1022.2 |
| 20260905005827 | 19 | 264 | 0.0 | 0.0 | 0.00 | 0.00 | 0.00 | 77 | 1022.3 |
| 20260905005330 | 19 | 264 | 0.0 | 0.0 | 0.00 | 0.00 | 0.00 | 77 | 1022.3 |
| 20260905004827 | 19 | 264 | 0.0 | 0.0 | 0.00 | 0.00 | 0.00 | 77 | 1022.3 |
| 20260905004327 | 19 | 264 | 0.0 | 0.0 | 0.00 | 0.00 | 0.00 | 77 | 1022.4 |
| 20260905002825 | 20 | 264 | 0.0 | 0.0 | 0.00 | 0.00 | 0.00 | 76 | 1022.4 |
| 20260905002325 | 20 | 264 | 0.0 | 1.6 | 0.00 | 0.00 | 0.00 | 77 | 1022.5 |
| 20260905001827 | 20 | 264 | 0.0 | 3.2 | 0.00 | 0.00 | 0.00 | 77 | 1022.5 |
| 20260905000822 | 19 | 266 | 0.0 | 6.4 | 0.00 | 0.00 | 0.00 | 76 | 1022.4 |
| 20260904235822 | 20 | 273 | 1.6 | 8.0 | 0.00 | 0.00 | 0.00 | 75 | 1022.6 |
| 20260904235322 | 20 | 264 | 0.0 | 8.0 | 0.00 | 0.00 | 0.00 | 74 | 1022.7 |
| 20260904233315 | 20 | 270 | 0.0 | 1.6 | 0.00 | 0.00 | 0.00 | 73 | 1022.6 |
| 20260904232313 | 20 | 269 | 0.0 | 0.0 | 0.00 | 0.00 | 0.00 | 73 | 1022.7 |
| 20260904230806 | 21 | 274 | 0.0 | 3.2 | 0.00 | 0.00 | 0.00 | 71 | 1022.8 |
| 20260904230318 | 21 | 274 | 0.0 | 3.2 | 0.00 | 0.00 | 0.00 | 71 | 1022.9 |
| 20260904225805 | 21 | 272 | 0.0 | 0.0 | 0.00 | 0.00 | 0.00 | 70 | 1023.0 |
| 20260904225306 | 21 | 272 | 0.0 | 0.0 | 0.00 | 0.00 | 0.00 | 69 | 1023.0 |
| 20260904224301 | 21 | 272 | 0.0 | 0.0 | 0.00 | 0.00 | 0.00 | 68 | 1022.8 |
| 20260904223802 | 22 | 272 | 0.0 | 0.0 | 0.00 | 0.00 | 0.00 | 68 | 1022.8 |
| 20260904223303 | 22 | 271 | 0.0 | 0.0 | 0.00 | 0.00 | 0.00 | 68 | 1022.8 |
| 20260904222801 | 22 | 271 | 0.0 | 4.8 | 0.00 | 0.00 | 0.00 | 68 | 1022.8 |
| 20260904222254 | 22 | 271 | 0.0 | 4.8 | 0.00 | 0.00 | 0.00 | 68 | 1022.8 |
| 20260904221749 | 22 | 273 | 0.0 | 1.6 | 0.00 | 0.00 | 0.00 | 67 | 1022.9 |
| 20260904220740 | 22 | 283 | 0.0 | 6.4 | 0.00 | 0.00 | 0.00 | 66 | 1022.8 |
| 20260904220231 | 22 | 274 | 0.0 | 6.4 | 0.00 | 0.00 | 0.00 | 65 | 1022.7 |
| 20260904215728 | 22 | 269 | 0.0 | 0.0 | 0.00 | 0.00 | 0.00 | 65 | 1022.8 |
| 20260904215218 | 22 | 269 | 0.0 | 3.2 | 0.00 | 0.00 | 0.00 | 65 | 1022.7 |
| 20260904214713 | 22 | 269 | 0.0 | 3.2 | 0.00 | 0.00 | 0.00 | 65 | 1022.7 |
| 20260904214206 | 22 | 271 | 0.0 | 0.0 | 0.00 | 0.00 | 0.00 | 65 | 1022.7 |
| 20260904213700 | 22 | 271 | 0.0 | 4.8 | 0.00 | 0.00 | 0.00 | 65 | 1022.5 |
| 20260904213156 | 23 | 271 | 0.0 | 4.8 | 0.00 | 0.00 | 0.00 | 64 | 1022.6 |
| 20260904212649 | 23 | 269 | 0.0 | 3.2 | 0.00 | 0.00 | 0.00 | 64 | 1022.5 |
| 20260904212145 | 23 | 276 | 0.0 | 0.0 | 0.00 | 0.00 | 0.00 | 63 | 1022.5 |
| 20260904211640 | 23 | 276 | 0.0 | 3.2 | 0.00 | 0.00 | 0.00 | 63 | 1022.5 |
| 20260904211131 | 23 | 278 | 0.0 | 3.2 | 0.00 | 0.00 | 0.00 | 62 | 1022.5 |
| 20260904210640 | 23 | 275 | 0.0 | 3.2 | 0.00 | 0.00 | 0.00 | 62 | 1022.5 |
| 20260904210121 | 23 | 285 | 0.0 | 3.2 | 0.00 | 0.00 | 0.00 | 61 | 1022.5 |
| 20260904205618 | 24 | 276 | 0.0 | 0.0 | 0.00 | 0.00 | 0.00 | 60 | 1022.5 |
| 20260904205118 | 24 | 276 | 0.0 | 0.0 | 0.00 | 0.00 | 0.00 | 60 | 1022.5 |
| 20260904204616 | 24 | 276 | 0.0 | 0.0 | 0.00 | 0.00 | 0.00 | 59 | 1022.5 |
| 20260904204113 | 24 | 276 | 0.0 | 0.0 | 0.00 | 0.00 | 0.00 | 59 | 1022.5 |
| 20260904203113 | 24 | 276 | 0.0 | 0.0 | 0.00 | 0.00 | 0.00 | 59 | 1022.5 |
| 20260904202614 | 24 | 276 | 0.0 | 1.6 | 0.00 | 0.00 | 0.00 | 59 | 1022.4 |
| 20260904201612 | 25 | 282 | 0.0 | 3.2 | 0.00 | 0.00 | 0.00 | 58 | 1022.4 |
| 20260904200610 | 25 | 271 | 0.0 | 3.2 | 0.00 | 0.00 | 0.00 | 56 | 1022.3 |
| 20260904195609 | 25 | 271 | 0.0 | 4.8 | 0.00 | 0.00 | 0.00 | 56 | 1022.3 |
| 20260904195105 | 25 | 274 | 0.0 | 4.8 | 0.00 | 0.00 | 0.00 | 56 | 1022.3 |
| 20260904194101 | 25 | 278 | 0.0 | 3.2 | 0.00 | 0.00 | 0.00 | 55 | 1022.3 |
| 20260904193100 | 25 | 276 | 0.0 | 3.2 | 0.00 | 0.00 | 0.00 | 54 | 1022.2 |
| 20260904192559 | 26 | 276 | 0.0 | 3.2 | 0.00 | 0.00 | 0.00 | 54 | 1022.2 |
| 20260904191549 | 26 | 274 | 0.0 | 3.2 | 0.00 | 0.00 | 0.00 | 52 | 1022.0 |
| 20260904191041 | 26 | 274 | 0.0 | 3.2 | 0.00 | 0.00 | 0.00 | 51 | 1021.9 |
| 20260904190536 | 27 | 271 | 0.0 | 1.6 | 0.00 | 0.00 | 0.00 | 49 | 1021.9 |
| 20260904190032 | 27 | 274 | 0.0 | 1.6 | 0.00 | 0.00 | 0.00 | 48 | 1021.8 |
| 20260904185523 | 28 | 273 | 0.0 | 0.0 | 0.00 | 0.00 | 0.00 | 47 | 1021.8 |
| 20260904185017 | 28 | 273 | 0.0 | 0.0 | 0.00 | 0.00 | 0.00 | 47 | 1021.7 |
| 20260904184512 | 28 | 273 | 0.0 | 0.0 | 0.00 | 0.00 | 0.00 | 46 | 1021.6 |
| 20260904183501 | 29 | 277 | 0.0 | 1.6 | 0.00 | 0.00 | 0.00 | 45 | 1021.5 |
| 20260904182957 | 29 | 278 | 0.0 | 1.6 | 0.00 | 0.00 | 0.00 | 45 | 1021.4 |
| 20260904181941 | 30 | 294 | 0.0 | 0.0 | 0.00 | 0.00 | 0.00 | 42 | 1021.4 |
| 20260904181435 | 30 | 301 | 0.0 | 0.0 | 0.00 | 0.00 | 0.00 | 41 | 1021.4 |
| 20260904180931 | 30 | 308 | 0.0 | 0.0 | 0.00 | 0.00 | 0.00 | 41 | 1021.3 |
| 20260904180422 | 30 | 314 | 0.0 | 0.0 | 0.00 | 0.00 | 0.00 | 40 | 1021.1 |
| 20260904175917 | 30 | 275 | 0.0 | 0.0 | 0.00 | 0.00 | 0.00 | 39 | 1021.1 |
| 20260904175413 | 31 | 273 | 0.0 | 0.0 | 0.00 | 0.00 | 0.00 | 37 | 1021.1 |
| 20260904174903 | 31 | 273 | 0.0 | 0.0 | 0.00 | 0.00 | 0.00 | 36 | 1021.0 |
| 20260904174359 | 31 | 273 | 0.0 | 0.0 | 0.00 | 0.00 | 0.00 | 35 | 1020.9 |
| 20260904173852 | 32 | 273 | 0.0 | 0.0 | 0.00 | 0.00 | 0.00 | 33 | 1020.9 |
| 20260904173345 | 32 | 272 | 0.0 | 0.0 | 0.00 | 0.00 | 0.00 | 32 | 1020.9 |
| 20260904172839 | 33 | 271 | 0.0 | 0.0 | 0.00 | 0.00 | 0.00 | 31 | 1020.8 |
| 20260904172349 | 34 | 271 | 0.0 | 0.0 | 0.00 | 0.00 | 0.00 | 29 | 1020.8 |
| 20260904171828 | 34 | 271 | 0.0 | 0.0 | 0.00 | 0.00 | 0.00 | 29 | 1020.8 |
| 20260904171321 | 35 | 271 | 0.0 | 0.0 | 0.00 | 0.00 | 0.00 | 27 | 1020.8 |
| 20260904170816 | 35 | 271 | 0.0 | 0.0 | 0.00 | 0.00 | 0.00 | 27 | 1020.8 |
| 20260904170309 | 35 | 272 | 0.0 | 0.0 | 0.00 | 0.00 | 0.00 | 26 | 1020.9 |
| 20260904165803 | 35 | 271 | 0.0 | 0.0 | 0.00 | 0.00 | 0.00 | 26 | 1020.9 |
| 20260904165259 | 36 | 271 | 0.0 | 1.6 | 0.00 | 0.00 | 0.00 | 25 | 1020.9 |
| 20260904164751 | 36 | 271 | 0.0 | 1.6 | 0.00 | 0.00 | 0.00 | 25 | 1020.8 |
| 20260904164245 | 36 | 268 | 0.0 | 1.6 | 0.00 | 0.00 | 0.00 | 26 | 1020.9 |
| 20260904163745 | 36 | 265 | 0.0 | 6.4 | 0.00 | 0.00 | 0.00 | 25 | 1020.9 |
| 20260904163245 | 36 | 283 | 0.0 | 6.4 | 0.00 | 0.00 | 0.00 | 25 | 1020.8 |
| 20260904162745 | 36 | 288 | 0.0 | 8.0 | 0.00 | 0.00 | 0.00 | 25 | 1020.8 |
| 20260904162245 | 36 | 279 | 0.0 | 8.0 | 0.00 | 0.00 | 0.00 | 25 | 1020.9 |
| 20260904161746 | 36 | 261 | 0.0 | 4.8 | 0.00 | 0.00 | 0.00 | 25 | 1020.8 |
| 20260904161245 | 36 | 290 | 0.0 | 6.4 | 0.00 | 0.00 | 0.00 | 25 | 1020.8 |
| 20260904160743 | 36 | 278 | 0.0 | 6.4 | 0.00 | 0.00 | 0.00 | 24 | 1020.9 |
| 20260904160242 | 36 | 274 | 0.0 | 3.2 | 0.00 | 0.00 | 0.00 | 25 | 1020.9 |
| 20260904155742 | 36 | 274 | 0.0 | 6.4 | 0.00 | 0.00 | 0.00 | 25 | 1020.9 |
| 20260904155239 | 36 | 274 | 0.0 | 6.4 | 0.00 | 0.00 | 0.00 | 24 | 1020.9 |
| 20260904154739 | 36 | 274 | 0.0 | 6.4 | 0.00 | 0.00 | 0.00 | 25 | 1021.0 |
| 20260904153735 | 36 | 251 | 0.0 | 4.8 | 0.00 | 0.00 | 0.00 | 24 | 1021.0 |
| 20260904153236 | 36 | 205 | 0.0 | 4.8 | 0.00 | 0.00 | 0.00 | 24 | 1021.1 |
| 20260904152738 | 36 | 269 | 1.6 | 6.4 | 0.00 | 0.00 | 0.00 | 22 | 1021.2 |
| 20260904152235 | 36 | 274 | 1.6 | 9.7 | 0.00 | 0.00 | 0.00 | 22 | 1021.2 |
| 20260904151233 | 36 | 298 | 1.6 | 9.7 | 0.00 | 0.00 | 0.00 | 23 | 1021.2 |
| 20260904150732 | 36 | 281 | 1.6 | 11.3 | 0.00 | 0.00 | 0.00 | 23 | 1021.2 |
| 20260904150235 | 36 | 340 | 1.6 | 11.3 | 0.00 | 0.00 | 0.00 | 23 | 1021.2 |
| 20260904145733 | 36 | 284 | 0.0 | 6.4 | 0.00 | 0.00 | 0.00 | 23 | 1021.2 |
| 20260904145233 | 36 | 280 | 0.0 | 6.4 | 0.00 | 0.00 | 0.00 | 23 | 1021.3 |
| 20260904144733 | 36 | 289 | 1.6 | 11.3 | 0.00 | 0.00 | 0.00 | 23 | 1021.2 |
| 20260904144234 | 36 | 296 | 1.6 | 14.5 | 0.00 | 0.00 | 0.00 | 24 | 1021.2 |
| 20260904143733 | 36 | 290 | 1.6 | 14.5 | 0.00 | 0.00 | 0.00 | 24 | 1021.2 |
| 20260904143233 | 36 | 279 | 3.2 | 14.5 | 0.00 | 0.00 | 0.00 | 24 | 1021.3 |
| 20260904142730 | 36 | 205 | 1.6 | 14.5 | 0.00 | 0.00 | 0.00 | 24 | 1021.2 |
| 20260904142228 | 36 | 317 | 1.6 | 11.3 | 0.00 | 0.00 | 0.00 | 24 | 1021.3 |
| 20260904141730 | 36 | 269 | 1.6 | 11.3 | 0.00 | 0.00 | 0.00 | 24 | 1021.3 |
| 20260904141231 | 36 | 279 | 0.0 | 3.2 | 0.00 | 0.00 | 0.00 | 25 | 1021.3 |
| 20260904140730 | 36 | 264 | 0.0 | 8.0 | 0.00 | 0.00 | 0.00 | 25 | 1021.3 |
| 20260904140228 | 36 | 308 | 1.6 | 9.7 | 0.00 | 0.00 | 0.00 | 25 | 1021.3 |
| 20260904135730 | 36 | 202 | 1.6 | 12.9 | 0.00 | 0.00 | 0.00 | 24 | 1021.5 |
| 20260904135228 | 36 | 276 | 1.6 | 12.9 | 0.00 | 0.00 | 0.00 | 25 | 1021.5 |
| 20260904134731 | 36 | 299 | 3.2 | 16.1 | 0.00 | 0.00 | 0.00 | 25 | 1021.6 |
| 20260904134229 | 36 | 272 | 1.6 | 16.1 | 0.00 | 0.00 | 0.00 | 25 | 1021.7 |
| 20260904133731 | 36 | 352 | 1.6 | 16.1 | 0.00 | 0.00 | 0.00 | 26 | 1021.6 |
| 20260904132729 | 36 | 271 | 1.6 | 12.9 | 0.00 | 0.00 | 0.00 | 27 | 1021.7 |
| 20260904132229 | 36 | 291 | 1.6 | 12.9 | 0.00 | 0.00 | 0.00 | 27 | 1021.7 |
| 20260904131730 | 36 | 290 | 0.0 | 6.4 | 0.00 | 0.00 | 0.00 | 27 | 1021.7 |
| 20260904131228 | 36 | 328 | 1.6 | 9.7 | 0.00 | 0.00 | 0.00 | 27 | 1021.7 |
| 20260904130239 | 36 | 309 | 1.6 | 9.7 | 0.00 | 0.00 | 0.00 | 28 | 1021.7 |
| 20260904125722 | 36 | 345 | 0.0 | 8.0 | 0.00 | 0.00 | 0.00 | 29 | 1021.8 |
| 20260904125224 | 36 | 320 | 0.0 | 8.0 | 0.00 | 0.00 | 0.00 | 30 | 1021.8 |
| 20260904124223 | 35 | 276 | 1.6 | 6.4 | 0.00 | 0.00 | 0.00 | 29 | 1021.9 |
| 20260904122721 | 35 | 238 | 0.0 | 6.4 | 0.00 | 0.00 | 0.00 | 30 | 1021.9 |
| 20260904122218 | 35 | 139 | 0.0 | 8.0 | 0.00 | 0.00 | 0.00 | 29 | 1022.0 |
| 20260904121720 | 35 | 333 | 0.0 | 8.0 | 0.00 | 0.00 | 0.00 | 29 | 1022.0 |
| 20260904121232 | 35 | 331 | 0.0 | 3.2 | 0.00 | 0.00 | 0.00 | 27 | 1022.0 |
| 20260904120718 | 35 | 124 | 0.0 | 1.6 | 0.00 | 0.00 | 0.00 | 28 | 1022.2 |
| 20260904115717 | 35 | 126 | 0.0 | 4.8 | 0.00 | 0.00 | 0.00 | 27 | 1022.3 |
| 20260904115219 | 35 | 105 | 0.0 | 1.6 | 0.00 | 0.00 | 0.00 | 28 | 1022.4 |
| 20260904114714 | 35 | 179 | 0.0 | 1.6 | 0.00 | 0.00 | 0.00 | 28 | 1022.5 |
| 20260904113710 | 34 | 218 | 0.0 | 1.6 | 0.00 | 0.00 | 0.00 | 28 | 1022.4 |
| 20260904113209 | 34 | 136 | 0.0 | 1.6 | 0.00 | 0.00 | 0.00 | 28 | 1022.5 |
| 20260904112709 | 34 | 133 | 0.0 | 1.6 | 0.00 | 0.00 | 0.00 | 28 | 1022.6 |
| 20260904112205 | 34 | 132 | 0.0 | 3.2 | 0.00 | 0.00 | 0.00 | 29 | 1022.7 |
| 20260904111203 | 34 | 176 | 0.0 | 1.6 | 0.00 | 0.00 | 0.00 | 33 | 1022.7 |
| 20260904105657 | 33 | 221 | 0.0 | 8.0 | 0.00 | 0.00 | 0.00 | 33 | 1022.8 |
| 20260904105154 | 33 | 273 | 0.0 | 8.0 | 0.00 | 0.00 | 0.00 | 32 | 1022.8 |
| 20260904104654 | 33 | 137 | 0.0 | 3.2 | 0.00 | 0.00 | 0.00 | 31 | 1022.9 |
| 20260904104154 | 32 | 138 | 0.0 | 4.8 | 0.00 | 0.00 | 0.00 | 31 | 1022.8 |
| 20260904103656 | 33 | 132 | 0.0 | 4.8 | 0.00 | 0.00 | 0.00 | 33 | 1022.9 |
| 20260904103156 | 32 | 113 | 0.0 | 4.8 | 0.00 | 0.00 | 0.00 | 34 | 1022.9 |
| 20260904102653 | 32 | 114 | 0.0 | 4.8 | 0.00 | 0.00 | 0.00 | 32 | 1022.9 |
| 20260904102152 | 32 | 138 | 0.0 | 6.4 | 0.00 | 0.00 | 0.00 | 33 | 1022.9 |
| 20260904101648 | 32 | 141 | 0.0 | 6.4 | 0.00 | 0.00 | 0.00 | 33 | 1023.0 |
| 20260904101147 | 32 | 131 | 0.0 | 6.4 | 0.00 | 0.00 | 0.00 | 33 | 1023.1 |
| 20260904100143 | 32 | 116 | 0.0 | 8.0 | 0.00 | 0.00 | 0.00 | 34 | 1023.1 |
| 20260904095644 | 31 | 106 | 0.0 | 4.8 | 0.00 | 0.00 | 0.00 | 35 | 1023.1 |
| 20260904095142 | 31 | 107 | 0.0 | 4.8 | 0.00 | 0.00 | 0.00 | 35 | 1023.2 |
| 20260904094140 | 31 | 105 | 0.0 | 4.8 | 0.00 | 0.00 | 0.00 | 37 | 1023.2 |
| 20260904093131 | 30 | 140 | 0.0 | 6.4 | 0.00 | 0.00 | 0.00 | 38 | 1023.4 |
| 20260904092626 | 30 | 117 | 0.0 | 6.4 | 0.00 | 0.00 | 0.00 | 37 | 1023.4 |
| 20260904092128 | 30 | 114 | 1.6 | 6.4 | 0.00 | 0.00 | 0.00 | 38 | 1023.4 |
| 20260904091625 | 30 | 125 | 0.0 | 8.0 | 0.00 | 0.00 | 0.00 | 41 | 1023.4 |
| 20260904091125 | 30 | 73 | 0.0 | 8.0 | 0.00 | 0.00 | 0.00 | 40 | 1023.5 |
| 20260904090624 | 30 | 91 | 0.0 | 4.8 | 0.00 | 0.00 | 0.00 | 42 | 1023.5 |
| 20260904090125 | 30 | 91 | 0.0 | 4.8 | 0.00 | 0.00 | 0.00 | 40 | 1023.5 |
| 20260904085625 | 30 | 86 | 0.0 | 3.2 | 0.00 | 0.00 | 0.00 | 44 | 1023.4 |
| 20260904084125 | 28 | 84 | 0.0 | 6.4 | 0.00 | 0.00 | 0.00 | 49 | 1023.4 |
| 20260904083625 | 28 | 98 | 0.0 | 6.4 | 0.00 | 0.00 | 0.00 | 52 | 1023.3 |
| 20260904083124 | 28 | 97 | 0.0 | 4.8 | 0.00 | 0.00 | 0.00 | 53 | 1023.4 |
| 20260904082122 | 28 | 111 | 0.0 | 4.8 | 0.00 | 0.00 | 0.00 | 56 | 1023.3 |
| 20260904081623 | 28 | 105 | 0.0 | 1.6 | 0.00 | 0.00 | 0.00 | 56 | 1023.3 |
| 20260904080622 | 27 | 125 | 0.0 | 1.6 | 0.00 | 0.00 | 0.00 | 59 | 1023.3 |
| 20260904080120 | 27 | 126 | 0.0 | 1.6 | 0.00 | 0.00 | 0.00 | 60 | 1023.2 |
| 20260904075616 | 27 | 143 | 0.0 | 0.0 | 0.00 | 0.00 | 0.00 | 62 | 1023.2 |
| 20260904075110 | 26 | 143 | 0.0 | 1.6 | 0.00 | 0.00 | 0.00 | 62 | 1023.1 |
| 20260904074603 | 26 | 143 | 0.0 | 1.6 | 0.00 | 0.00 | 0.00 | 63 | 1023.2 |
| 20260904074056 | 26 | 143 | 0.0 | 1.6 | 0.00 | 0.00 | 0.00 | 65 | 1023.2 |
| 20260904073552 | 25 | 143 | 0.0 | 1.6 | 0.00 | 0.00 | 0.00 | 64 | 1023.1 |
| 20260904073044 | 25 | 145 | 0.0 | 1.6 | 0.00 | 0.00 | 0.00 | 65 | 1023.2 |
| 20260904072539 | 25 | 146 | 0.0 | 6.4 | 0.00 | 0.00 | 0.00 | 67 | 1023.2 |
| 20260904072033 | 25 | 148 | 0.0 | 6.4 | 0.00 | 0.00 | 0.00 | 67 | 1023.2 |
| 20260904071528 | 24 | 255 | 0.0 | 0.0 | 0.00 | 0.00 | 0.00 | 68 | 1023.2 |
| 20260904071022 | 24 | 259 | 0.0 | 0.0 | 0.00 | 0.00 | 0.00 | 69 | 1023.2 |
| 20260904070521 | 23 | 259 | 0.0 | 0.0 | 0.00 | 0.00 | 0.00 | 70 | 1023.3 |
| 20260904070025 | 23 | 259 | 0.0 | 0.0 | 0.00 | 0.00 | 0.00 | 71 | 1023.2 |
| 20260904065519 | 23 | 260 | 0.0 | 0.0 | 0.00 | 0.00 | 0.00 | 73 | 1023.2 |